Regional Weather Roundup
Issued by NWS

Home | Current Version | Previous Version | Graphics & Text | Print | Product List | Glossary On
Versions: 1 2 3 4 5 6 7 8 9 10 11 12 13 14 15 16 17 18 19 20 21 22 23 24 25 26 27 28 29 30 31 32 33 34 35 36 37 38 39 40 41 42 43 44 45 46 47
000
ASUS45 KBOU 251007
RWRCO

WEATHER ROUNDUP FOR COLORADO
NATIONAL WEATHER SERVICE DENVER/BOULDER CO
300 AM MST THU DEC 25 2014

NOTE: "FAIR" INDICATES FEW OR NO CLOUDS BELOW 12000 FEET WITH NO
SIGNIFICANT WEATHER AND/OR OBSTRUCTIONS TO VISIBILITY.

COZ001>005-013-030-031-251100-
...NORTHWEST COLORADO...

CITY           SKY/WX    TMP DP  RH WIND       PRES   REMARKS
CRAIG          CLOUDY    28  23  81 E8        29.52F WCI  20
HAYDEN         CLOUDY    23  19  86 SE9       29.51F WCI  13
MEEKER         CLOUDY    34  19  54 S10       29.52F WCI  26
MOUNT WERNER   NOT AVBL
STEAMBOAT SPGS CLOUDY    21  19  91 CALM      29.52F
WALDEN         CLOUDY    23  14  68 S7        29.50F WCI  15
$$

COZ006>008-011-251100-
...WEST CENTRAL VALLEYS...

CITY           SKY/WX    TMP DP  RH WIND       PRES   REMARKS
GRAND JUNCTION CLOUDY    29  19  66 SE5       29.56F WCI  24
MONTROSE       CLOUDY    32  18  56 NW7       29.58F WCI  26
EAGLE          CLOUDY    18  12  79 CALM      29.62F
RIFLE          CLOUDY    25  18  74 W6        29.60F WCI  18
DELTA          CLOUDY    33  21  60 CALM      29.58F
NUCLA          CLOUDY    30  21  69 N3        29.62F
$$

COZ017>023-064>068-251100-
...SOUTHWEST COLORADO...

CITY           SKY/WX    TMP DP  RH WIND       PRES   REMARKS
DURANGO        CLOUDY    25  13  60 CALM      29.71F
CORTEZ         MOCLDY    35  13  40 SW6       29.65F WCI  30
PAGOSA SPRINGS CLOUDY    23  11  61 CALM      29.72F
TELLURIDE      CLOUDY    32  14  47 SE18G29   29.62F WCI  20
WOLF CREEK PAS LGT SNOW  10   9  92 MISG      29.68F
$$

COZ009-010-012-014-032>034-037-058>063-251100-
...CENTRAL COLORADO...

CITY           SKY/WX    TMP DP  RH WIND       PRES   REMARKS
ASPEN          CLOUDY    21  16  81 NW3       29.53F
BUENA VISTA    CLOUDY    20   9  61 W3        29.60F
COPPER MTN     LGT SNOW  23  18  80 S14G21    29.58F VSB 1   WCI  11
BERTHOUD PASS  FAIR      16  10  79 MISG      29.57R
COTTONWOOD PAS CLOUDY    30  21  69 N3        29.59F
GUNNISON       MOCLDY     7 -13  40 N6        29.69F WCI  -3
KREMMLING      CLOUDY     9   3  78 CALM      29.59F
LEADVILLE      CLOUDY    16  10  77 CALM      29.55F
MONARCH PASS   CLOUDY    14  12  92 MISG      29.69F
SALIDA         MOCLDY    31   8  38 S16G28    29.66F WCI  20
SUNLIGHT       LGT SNOW N/A N/A N/A MISG      29.55F
WILKERSON PASS PTCLDY    18  10  73 SW16G24   29.57F WCI   3
$$

COZ069>075-251100-
...SAN LUIS VALLEY/SANGRE DE CRISTO MOUNTAINS...

CITY           SKY/WX    TMP DP  RH WIND       PRES   REMARKS
ALAMOSA        PTCLDY     3  -2  79 CALM      29.70F
LA VETA PASS   NOT AVBL
SAGUACHE       MOCLDY     9   1  72 NW10      29.69F WCI  -6
$$

COZ035-036-038>040-251100-
...NORTHERN COLORADO FRONT RANGE...

CITY           SKY/WX    TMP DP  RH WIND       PRES   REMARKS
DENVER INTL AP MOCLDY    39  17  41 S17       29.41S
DMNS CITY PARK   N/A     38  15  39 S2G9      29.41F
AURORA         MOCLDY    39  15  38 S14       29.43R
FRONT RANGE AP NOT AVBL
ERIE MUNI ARPT   N/A     30  17  57 N3        29.40S
BOULDER MUN AP MOCLDY    34  19  55 N3        29.40R
CENTENNIAL     MOCLDY    40  16  37 S16       29.43S
BROOMFIELD     MOCLDY    41  14  33 W7        29.42S
FORT COLLINS   MOCLDY    27  16  63 N3        29.41S
LONGMONT       MOCLDY    29  18  64 CALM      29.43R
$$

COZ041-046-047-076>085-087-088-251100-
...PIKES PEAK/PALMER DIVIDE AND SOUTHERN FOOTHILLS...

CITY           SKY/WX    TMP DP  RH WIND       PRES   REMARKS
COLO. SPRINGS  MOCLDY    33  12  41 E8        29.48F WCI  26
A. F. ACADEMY  PTCLDY    36  13  39 NW7       29.47F
ELLICOTT       NOT AVBL
FALCON         PTCLDY    39  12  33 CALM      29.50R
FORT CARSON    CLEAR     28  14  55 NW5       29.46S WCI  23
LIMON          MOCLDY    24  21  88 CALM      29.43F
MONUMENT HILL  PTCLDY    36  14  41 SW15      29.47S
TRINIDAD       PTCLDY    33  15  47 W7        29.53F WCI  27
$$

COZ042>045-048>051-090-091-251100-
...NORTHEAST COLORADO...

CITY           SKY/WX    TMP DP  RH WIND       PRES   REMARKS
GREELEY ARPT   MOCLDY    21  10  63 CALM      29.40F
AKRON          MOCLDY    34  24  67 W12       29.41F WCI  25
BURLINGTON     CLOUDY    34  20  56 W15       29.43S WCI  24
WRAY           CLOUDY    27  22  84 CALM      29.42F
STERLING       MOCLDY    28  27  93 S5        29.41F WCI  23
HOLYOKE        CLOUDY    27  23  86 W5        29.43F WCI  21
FORT MORGAN    MOCLDY    24  21  87 NW6       29.42F WCI  17
$$

COZ086-089-092>099-251100-
...SOUTHEAST COLORADO...

CITY           SKY/WX    TMP DP  RH WIND       PRES   REMARKS
PUEBLO         PTCLDY    30  16  56 W5        29.48S WCI  25
LA JUNTA       PTCLDY    40  17  39 W17       29.46S
LAMAR          CLOUDY    29  22  75 W7        29.44F WCI  22
SPRINGFIELD      N/A     34  24  67 S8        29.46F WCI  27
$$


USA.gov is the U.S. government's official web portal to all federal, state and local government web resources and services.